,,,PA_Meas_PMT16A,,PR_Meas_QMR101_102,,RH_Meas_QMH101,,SR_Meas_QMS101,,TA_Meas_QMH101,,GenWind,,GenWind,
date,time,status,PA,status,PR,status,RH,status,SR,status,TA,status,DirAvg,status,SpdAvg,
2008-12-28, 00:00:04,VALID,1002.11,VALID,0,VALID,88.3882,VALID,0,VALID,25.4558,VALID,351,VALID,0.191016,
2008-12-28, 00:01:04,VALID,1002.11,VALID,0,VALID,88.495,VALID,0,VALID,25.4772,VALID,351,VALID,0.208594,
2008-12-28, 00:02:04,VALID,1002.1,VALID,0,VALID,88.5026,VALID,0,VALID,25.4363,VALID,351,VALID,0.338281,
2008-12-28, 00:03:04,VALID,1002.08,VALID,0,VALID,88.5637,VALID,0,VALID,25.4169,VALID,351,VALID,0,
2008-12-28, 00:04:04,VALID,1002.11,VALID,0,VALID,88.6628,VALID,0,VALID,25.4169,VALID,351,VALID,0.257422,
2008-12-28, 00:05:04,VALID,1002.07,VALID,0,VALID,88.6934,VALID,0,VALID,25.4169,VALID,351,VALID,0.172266,
2008-12-28, 00:06:04,VALID,1002.07,VALID,0,VALID,88.7391,VALID,0,VALID,25.4169,VALID,351,VALID,0.00585938,
2008-12-28, 00:07:04,VALID,1002.05,VALID,0,VALID,88.6934,VALID,0,VALID,25.4169,VALID,354,VALID,0.514453,
2008-12-28, 00:08:04,VALID,1002.02,VALID,0,VALID,88.6705,VALID,0,VALID,25.4577,VALID,356,VALID,0.690625,
2008-12-28, 00:09:04,VALID,1002.01,VALID,0,VALID,88.6628,VALID,0,VALID,25.4169,VALID,356,VALID,0.697266,
2008-12-28, 00:10:04,VALID,1002.01,VALID,0,VALID,88.7162,VALID,0,VALID,25.3974,VALID,354,VALID,0.676953,
2008-12-28, 00:11:04,VALID,1001.97,VALID,0,VALID,88.7239,VALID,0,VALID,25.3974,VALID,353,VALID,0.619922,
2008-12-28, 00:12:04,VALID,1001.99,VALID,0,VALID,88.8459,VALID,0,VALID,25.3779,VALID,356,VALID,0.499219,
2008-12-28, 00:13:04,VALID,1001.95,VALID,0,VALID,88.9146,VALID,0,VALID,25.3779,VALID,353,VALID,0.629297,
2008-12-28, 00:14:04,VALID,1001.93,VALID,0,VALID,88.9146,VALID,0,VALID,25.3584,VALID,352,VALID,0.562891,
2008-12-28, 00:15:04,VALID,1001.89,VALID,0,VALID,88.9833,VALID,0,VALID,25.3584,VALID,350,VALID,0.290625,
2008-12-28, 00:16:04,VALID,1001.88,VALID,0,VALID,89.0977,VALID,0.100563,VALID,25.3584,VALID,350,VALID,0.00273437,
2008-12-28, 00:17:04,VALID,1001.88,VALID,0,VALID,89.1435,VALID,0.100563,VALID,25.3584,VALID,348,VALID,0,
2008-12-28, 00:18:04,VALID,1001.83,VALID,0,VALID,89.1892,VALID,0,VALID,25.3584,VALID,351,VALID,0,
2008-12-28, 00:19:04,VALID,1001.82,VALID,0,VALID,89.2655,VALID,0,VALID,25.3584,VALID,351,VALID,0.261719,
2008-12-28, 00:20:04,VALID,1001.81,VALID,0,VALID,89.2884,VALID,0.100563,VALID,25.3974,VALID,346,VALID,0.969141,
2008-12-28, 00:21:04,VALID,1001.77,VALID,0,VALID,89.174,VALID,0,VALID,25.4169,VALID,342,VALID,0.314453,
2008-12-28, 00:22:04,VALID,1001.76,VALID,0,VALID,89.0748,VALID,0,VALID,25.4363,VALID,342,VALID,0.181641,
2008-12-28, 00:23:04,VALID,1001.75,VALID,0,VALID,89.1282,VALID,0,VALID,25.4344,VALID,340,VALID,0,
2008-12-28, 00:24:04,VALID,1001.71,VALID,0,VALID,89.0977,VALID,0,VALID,25.4558,VALID,15,VALID,0.737109,
2008-12-28, 00:25:04,VALID,1001.7,VALID,0,VALID,88.9527,VALID,0.100563,VALID,25.4948,VALID,352,VALID,0.553906,
2008-12-28, 00:26:04,VALID,1001.66,VALID,0,VALID,88.8383,VALID,0,VALID,25.4753,VALID,336,VALID,0.342969,
2008-12-28, 00:27:04,VALID,1001.62,VALID,0,VALID,88.907,VALID,0,VALID,25.4948,VALID,336,VALID,0.272656,
2008-12-28, 00:28:04,VALID,1001.62,VALID,0,VALID,88.7697,VALID,0,VALID,25.5142,VALID,338,VALID,0.381641,
2008-12-28, 00:29:04,VALID,1001.56,VALID,0,VALID,88.6781,VALID,0,VALID,25.4948,VALID,338,VALID,0.388672,
2008-12-28, 00:30:04,VALID,1001.57,VALID,0,VALID,88.6094,VALID,0.100563,VALID,25.5357,VALID,345,VALID,0.533984,
2008-12-28, 00:31:04,VALID,1001.55,VALID,0,VALID,88.5179,VALID,0,VALID,25.5532,VALID,355,VALID,0.364844,
2008-12-28, 00:32:04,VALID,1001.54,VALID,0,VALID,88.3653,VALID,0,VALID,25.5941,VALID,310,VALID,0.710547,
2008-12-28, 00:33:04,VALID,1001.5,VALID,0,VALID,88.2433,VALID,0,VALID,25.6116,VALID,331,VALID,0.402734,
2008-12-28, 00:34:04,VALID,1001.5,VALID,0,VALID,88.1212,VALID,0,VALID,25.6311,VALID,348,VALID,0.903125,
2008-12-28, 00:35:04,VALID,1001.48,VALID,0,VALID,87.9839,VALID,0,VALID,25.6506,VALID,340,VALID,0.983984,
2008-12-28, 00:36:04,VALID,1001.47,VALID,0,VALID,87.9457,VALID,0,VALID,25.67,VALID,295,VALID,0.477344,
2008-12-28, 00:37:04,VALID,1001.45,VALID,0,VALID,87.8694,VALID,0,VALID,25.6915,VALID,337,VALID,0.597266,
2008-12-28, 00:38:04,VALID,1001.43,VALID,0,VALID,87.9152,VALID,0,VALID,25.6506,VALID,345,VALID,0.777734,
2008-12-28, 00:39:04,VALID,1001.42,VALID,0,VALID,87.9305,VALID,0,VALID,25.6506,VALID,347,VALID,0.659375,
2008-12-28, 00:40:04,VALID,1001.42,VALID,0,VALID,87.8847,VALID,0,VALID,25.6097,VALID,332,VALID,0.927734,
2008-12-28, 00:41:04,VALID,1001.37,VALID,0,VALID,87.9762,VALID,0,VALID,25.5902,VALID,332,VALID,0.855859,
2008-12-28, 00:42:04,VALID,1001.36,VALID,0,VALID,88.0296,VALID,0,VALID,25.6116,VALID,4,VALID,0.966016,
2008-12-28, 00:43:04,VALID,1001.34,VALID,0,VALID,88.0602,VALID,0,VALID,25.6116,VALID,349,VALID,1.52539,
2008-12-28, 00:44:04,VALID,1001.32,VALID,0,VALID,88.1517,VALID,0,VALID,25.6116,VALID,335,VALID,0.515234,
2008-12-28, 00:45:04,VALID,1001.31,VALID,0,VALID,88.2738,VALID,0,VALID,25.6116,VALID,335,VALID,0.316016,
2008-12-28, 00:46:04,VALID,1001.31,VALID,0,VALID,88.3577,VALID,0,VALID,25.6116,VALID,335,VALID,0.1875,
2008-12-28, 00:47:04,VALID,1001.32,VALID,0,VALID,88.4645,VALID,0,VALID,25.5921,VALID,338,VALID,0.278125,
2008-12-28, 00:48:04,VALID,1001.27,VALID,0,VALID,88.5179,VALID,0.100563,VALID,25.6116,VALID,353,VALID,0.153125,
2008-12-28, 00:49:04,VALID,1001.25,VALID,0,VALID,88.5255,VALID,0.100563,VALID,25.6116,VALID,353,VALID,0.291797,
2008-12-28, 00:50:04,VALID,1001.26,VALID,0,VALID,88.5408,VALID,0,VALID,25.5921,VALID,318,VALID,0.372656,
2008-12-28, 00:51:04,VALID,1001.26,VALID,0,VALID,88.5484,VALID,0,VALID,25.5921,VALID,352,VALID,0.194531,
2008-12-28, 00:52:04,VALID,1001.24,VALID,0,VALID,88.4798,VALID,0,VALID,25.6116,VALID,350,VALID,0.935156,
2008-12-28, 00:53:04,VALID,1001.25,VALID,0,VALID,88.3577,VALID,0,VALID,25.6116,VALID,343,VALID,1.00977,
2008-12-28, 00:54:04,VALID,1001.25,VALID,0,VALID,88.2738,VALID,0,VALID,25.6311,VALID,343,VALID,0.280469,
2008-12-28, 00:55:04,VALID,1001.26,VALID,0,VALID,88.4035,VALID,0,VALID,25.6097,VALID,352,VALID,0.237891,
2008-12-28, 00:56:04,VALID,1001.27,VALID,0,VALID,88.3501,VALID,0,VALID,25.6506,VALID,347,VALID,0.159766,
2008-12-28, 00:57:04,VALID,1001.24,VALID,0,VALID,88.3729,VALID,0,VALID,25.6525,VALID,341,VALID,0.163281,
2008-12-28, 00:58:04,VALID,1001.27,VALID,0,VALID,88.4035,VALID,0,VALID,25.6506,VALID,348,VALID,0.286719,
2008-12-28, 00:59:04,VALID,1001.24,VALID,0,VALID,88.2814,VALID,0.100563,VALID,25.6506,VALID,1,VALID,0.494141,
2008-12-28, 01:00:04,VALID,1001.25,VALID,0,VALID,88.0678,VALID,0,VALID,25.67,VALID,352,VALID,0.8875,
2008-12-28, 01:01:04,VALID,1001.24,VALID,0,VALID,88.0678,VALID,0,VALID,25.6895,VALID,343,VALID,0.2375,
2008-12-28, 01:02:04,VALID,1001.23,VALID,0,VALID,88.0373,VALID,0,VALID,25.7304,VALID,339,VALID,0.190234,
2008-12-28, 01:03:04,VALID,1001.23,VALID,0,VALID,88.0525,VALID,0,VALID,25.7499,VALID,332,VALID,0.271094,
2008-12-28, 01:04:04,VALID,1001.23,VALID,0,VALID,87.9457,VALID,0,VALID,25.748,VALID,323,VALID,0.301172,
2008-12-28, 01:05:04,VALID,1001.27,VALID,0,VALID,87.6863,VALID,0,VALID,25.748,VALID,285,VALID,1.30117,
2008-12-28, 01:06:04,VALID,1001.4,VALID,0,VALID,87.9076,VALID,0,VALID,25.7674,VALID,235,VALID,1.33633,
2008-12-28, 01:07:04,VALID,1001.38,VALID,0,VALID,87.9762,VALID,0,VALID,25.7869,VALID,189,VALID,0.321094,
2008-12-28, 01:08:04,VALID,1001.35,VALID,0,VALID,87.9762,VALID,0,VALID,25.7674,VALID,212,VALID,0.475391,
2008-12-28, 01:09:04,VALID,1001.33,VALID,0,VALID,87.3659,VALID,0,VALID,25.7285,VALID,255,VALID,1.29805,
2008-12-28, 01:10:04,VALID,1001.38,VALID,0,VALID,87.7016,VALID,0,VALID,25.6895,VALID,303,VALID,0.9875,
2008-12-28, 01:11:04,VALID,1001.39,VALID,0,VALID,87.6863,VALID,0,VALID,25.6895,VALID,316,VALID,0.970703,
2008-12-28, 01:12:04,VALID,1001.41,VALID,0,VALID,87.7474,VALID,0,VALID,25.6506,VALID,312,VALID,1.00742,
2008-12-28, 01:13:04,VALID,1001.41,VALID,0,VALID,88.1288,VALID,0,VALID,25.6506,VALID,267,VALID,0.786328,
2008-12-28, 01:14:04,VALID,1001.42,VALID,0,VALID,88.3119,VALID,0,VALID,25.6506,VALID,281,VALID,0.592188,
2008-12-28, 01:15:04,VALID,1001.44,VALID,0,VALID,88.4492,VALID,0,VALID,25.67,VALID,216,VALID,0.68125,
2008-12-28, 01:16:04,VALID,1001.44,VALID,0,VALID,88.1365,VALID,0,VALID,25.67,VALID,196,VALID,0.823438,
2008-12-28, 01:17:04,VALID,1001.43,VALID,0,VALID,87.427,VALID,0,VALID,25.6311,VALID,210,VALID,1.93281,
2008-12-28, 01:18:04,VALID,1001.37,VALID,0,VALID,87.7321,VALID,0,VALID,25.6311,VALID,238,VALID,0.548047,
2008-12-28, 01:19:04,VALID,1001.39,VALID,0,VALID,87.8389,VALID,0,VALID,25.6525,VALID,151,VALID,0.325,
2008-12-28, 01:20:04,VALID,1001.3,VALID,0,VALID,87.6177,VALID,0,VALID,25.633,VALID,80,VALID,0.489453,
2008-12-28, 01:21:04,VALID,1001.3,VALID,0,VALID,87.343,VALID,0,VALID,25.6116,VALID,291,VALID,0.754687,
2008-12-28, 01:22:04,VALID,1001.29,VALID,0,VALID,87.3736,VALID,0,VALID,25.5921,VALID,187,VALID,0.577734,
2008-12-28, 01:23:04,VALID,1001.27,VALID,0,VALID,86.9082,VALID,0,VALID,25.6136,VALID,254,VALID,0.226953,
2008-12-28, 01:24:04,VALID,1001.22,VALID,0,VALID,86.5802,VALID,0,VALID,25.6136,VALID,220,VALID,0.507422,
2008-12-28, 01:25:04,VALID,1001.21,VALID,0,VALID,86.8853,VALID,0,VALID,25.5921,VALID,2,VALID,0.708203,
2008-12-28, 01:26:04,VALID,1001.2,VALID,0,VALID,86.275,VALID,0,VALID,25.5941,VALID,343,VALID,0.624609,
2008-12-28, 01:27:04,VALID,1001.17,VALID,0,VALID,85.7105,VALID,0,VALID,25.5727,VALID,357,VALID,0.278906,
2008-12-28, 01:28:04,VALID,1001.17,VALID,0,VALID,85.5579,VALID,0,VALID,25.5727,VALID,270,VALID,0.605469,
2008-12-28, 01:29:04,VALID,1001.14,VALID,0,VALID,85.2833,VALID,0,VALID,25.5727,VALID,278,VALID,0.492969,
2008-12-28, 01:30:04,VALID,1001.13,VALID,0,VALID,85.2299,VALID,0,VALID,25.6116,VALID,271,VALID,0.692578,
2008-12-28, 01:31:04,VALID,1001.12,VALID,0,VALID,85.1383,VALID,0,VALID,25.6311,VALID,274,VALID,0.229297,
2008-12-28, 01:32:04,VALID,1001.09,VALID,0,VALID,84.8713,VALID,0,VALID,25.6506,VALID,274,VALID,0.23125,
2008-12-28, 01:33:04,VALID,1001.07,VALID,0,VALID,84.6806,VALID,0,VALID,25.6506,VALID,308,VALID,0.44375,
2008-12-28, 01:34:04,VALID,1001.06,VALID,0,VALID,84.8103,VALID,0,VALID,25.7109,VALID,318,VALID,0.400781,
2008-12-28, 01:35:04,VALID,1001.07,VALID,0,VALID,84.5967,VALID,0,VALID,25.6895,VALID,339,VALID,0.936328,
2008-12-28, 01:36:04,VALID,1001.09,VALID,0,VALID,84.5967,VALID,0,VALID,25.709,VALID,347,VALID,0.838281,
2008-12-28, 01:37:04,VALID,1001.1,VALID,0,VALID,84.5585,VALID,0,VALID,25.7304,VALID,341,VALID,0.195703,
2008-12-28, 01:38:04,VALID,1001.11,VALID,0,VALID,84.5967,VALID,0,VALID,25.7285,VALID,341,VALID,0.188672,
2008-12-28, 01:39:04,VALID,1001.14,VALID,0,VALID,84.5433,VALID,0,VALID,25.7285,VALID,350,VALID,0.725391,
2008-12-28, 01:40:04,VALID,1001.14,VALID,0,VALID,84.4593,VALID,0,VALID,25.7285,VALID,360,VALID,0.344922,
2008-12-28, 01:41:04,VALID,1001.13,VALID,0,VALID,84.6806,VALID,0,VALID,25.709,VALID,359,VALID,0.879687,
2008-12-28, 01:42:04,VALID,1001.11,VALID,0,VALID,84.5356,VALID,0,VALID,25.709,VALID,300,VALID,0.475,
2008-12-28, 01:43:04,VALID,1001.12,VALID,0,VALID,84.8942,VALID,0,VALID,25.709,VALID,300,VALID,0.309375,
2008-12-28, 01:44:04,VALID,1001.08,VALID,0,VALID,85.1765,VALID,0,VALID,25.709,VALID,299,VALID,0.298438,
2008-12-28, 01:45:04,VALID,1001.06,VALID,0,VALID,85.3367,VALID,0,VALID,25.709,VALID,299,VALID,0.144922,
2008-12-28, 01:46:04,VALID,1001.05,VALID,0,VALID,85.3824,VALID,0,VALID,25.6895,VALID,299,VALID,0.280469,
2008-12-28, 01:47:04,VALID,1001.03,VALID,0,VALID,85.5808,VALID,0,VALID,25.67,VALID,299,VALID,0.258203,
2008-12-28, 01:48:04,VALID,1001.03,VALID,0,VALID,85.7715,VALID,0,VALID,25.67,VALID,299,VALID,0.112891,
2008-12-28, 01:49:04,VALID,1001.02,VALID,0,VALID,85.7944,VALID,0,VALID,25.67,VALID,299,VALID,0.0632813,
2008-12-28, 01:50:04,VALID,1001.03,VALID,0,VALID,85.7868,VALID,0,VALID,25.6525,VALID,299,VALID,0.521484,
2008-12-28, 01:51:04,VALID,1001.02,VALID,0,VALID,86.2445,VALID,0,VALID,25.6506,VALID,299,VALID,0,
2008-12-28, 01:52:04,VALID,1000.95,VALID,0,VALID,86.0538,VALID,0,VALID,25.672,VALID,299,VALID,0.00429688,
2008-12-28, 01:53:04,VALID,1000.95,VALID,0,VALID,86.3742,VALID,0,VALID,25.6525,VALID,299,VALID,0,
2008-12-28, 01:54:04,VALID,1000.94,VALID,0,VALID,86.4734,VALID,0,VALID,25.6116,VALID,299,VALID,0.0644531,
2008-12-28, 01:55:04,VALID,1000.9,VALID,0,VALID,86.687,VALID,0,VALID,25.6136,VALID,299,VALID,0,
2008-12-28, 01:56:04,VALID,1000.91,VALID,0,VALID,86.8853,VALID,0,VALID,25.5921,VALID,299,VALID,0,
2008-12-28, 01:57:04,VALID,1000.9,VALID,0,VALID,86.9845,VALID,0,VALID,25.5941,VALID,299,VALID,0,
2008-12-28, 01:58:04,VALID,1000.93,VALID,0,VALID,87.3125,VALID,0,VALID,25.5532,VALID,299,VALID,0.314063,
2008-12-28, 01:59:04,VALID,1000.87,VALID,0,VALID,87.4956,VALID,0,VALID,25.5357,VALID,326,VALID,0.637891,
2008-12-28, 02:00:04,VALID,1000.86,VALID,0,VALID,87.4727,VALID,0,VALID,25.4558,VALID,6,VALID,0.541406,
2008-12-28, 02:01:04,VALID,1000.83,VALID,0,VALID,87.8313,VALID,0,VALID,25.4188,VALID,7,VALID,0.520703,
2008-12-28, 02:02:04,VALID,1000.82,VALID,0,VALID,87.9915,VALID,0,VALID,25.3409,VALID,7,VALID,0.40625,
2008-12-28, 02:03:04,VALID,1000.77,VALID,0,VALID,88.1212,VALID,0,VALID,25.3,VALID,4,VALID,0.716406,
2008-12-28, 02:04:04,VALID,1000.74,VALID,0,VALID,88.3272,VALID,0,VALID,25.3214,VALID,353,VALID,0.703906,
2008-12-28, 02:05:04,VALID,1000.69,VALID,0,VALID,88.5026,VALID,0,VALID,25.2806,VALID,353,VALID,0.644531,
2008-12-28, 02:06:04,VALID,1000.67,VALID,0,VALID,88.5713,VALID,0,VALID,25.3,VALID,345,VALID,0.476563,
2008-12-28, 02:07:04,VALID,1000.66,VALID,0,VALID,88.64,VALID,0,VALID,25.3,VALID,352,VALID,0.5625,
2008-12-28, 02:08:04,VALID,1000.64,VALID,0,VALID,88.701,VALID,0,VALID,25.3214,VALID,348,VALID,0.228125,
2008-12-28, 02:09:04,VALID,1000.67,VALID,0,VALID,88.9146,VALID,0,VALID,25.3019,VALID,348,VALID,0.253906,
2008-12-28, 02:10:04,VALID,1000.62,VALID,0,VALID,88.9909,VALID,0.100563,VALID,25.2592,VALID,348,VALID,0.100781,
2008-12-28, 02:11:04,VALID,1000.67,VALID,0,VALID,89.029,VALID,0,VALID,25.2806,VALID,262,VALID,0.594531,
2008-12-28, 02:12:04,VALID,1000.62,VALID,0,VALID,88.9299,VALID,0.100563,VALID,25.3,VALID,262,VALID,0.181641,
2008-12-28, 02:13:04,VALID,1000.59,VALID,0,VALID,88.8917,VALID,0.100563,VALID,25.2981,VALID,262,VALID,0.138672,
2008-12-28, 02:14:04,VALID,1000.61,VALID,0,VALID,88.8612,VALID,0.100563,VALID,25.337,VALID,270,VALID,0.361328,
2008-12-28, 02:15:04,VALID,1000.6,VALID,0,VALID,88.9451,VALID,0,VALID,25.3779,VALID,270,VALID,0.175781,
2008-12-28, 02:16:04,VALID,1000.56,VALID,0,VALID,88.762,VALID,0,VALID,25.3974,VALID,270,VALID,0.213281,
2008-12-28, 02:17:04,VALID,1000.58,VALID,0,VALID,88.701,VALID,0.100563,VALID,25.4169,VALID,301,VALID,0.536328,
2008-12-28, 02:18:04,VALID,1000.54,VALID,0,VALID,88.8383,VALID,0.100563,VALID,25.4344,VALID,215,VALID,0.267969,
2008-12-28, 02:19:04,VALID,1000.51,VALID,0,VALID,88.7391,VALID,0.100563,VALID,25.4325,VALID,288,VALID,0.603906,
2008-12-28, 02:20:04,VALID,1000.51,VALID,0,VALID,88.5408,VALID,0.100563,VALID,25.4928,VALID,288,VALID,0.349609,
2008-12-28, 02:21:04,VALID,1000.52,VALID,0,VALID,88.4187,VALID,0,VALID,25.5337,VALID,356,VALID,0.448828,
2008-12-28, 02:22:04,VALID,1000.53,VALID,0,VALID,88.3653,VALID,0.100563,VALID,25.5318,VALID,356,VALID,0.783984,
2008-12-28, 02:23:04,VALID,1000.52,VALID,0,VALID,88.3653,VALID,0.100563,VALID,25.5123,VALID,356,VALID,0.00195313,
2008-12-28, 02:24:04,VALID,1000.55,VALID,0,VALID,88.4264,VALID,0.100563,VALID,25.5142,VALID,357,VALID,0.431641,
2008-12-28, 02:25:04,VALID,1000.55,VALID,0,VALID,88.4111,VALID,0,VALID,25.4753,VALID,357,VALID,0.275,
2008-12-28, 02:26:04,VALID,1000.52,VALID,0,VALID,88.5408,VALID,0,VALID,25.4558,VALID,357,VALID,0.364844,
2008-12-28, 02:27:04,VALID,1000.57,VALID,0,VALID,88.6628,VALID,0,VALID,25.4577,VALID,357,VALID,0.473828,
2008-12-28, 02:28:04,VALID,1000.52,VALID,0,VALID,88.8917,VALID,0,VALID,25.4169,VALID,357,VALID,0.576172,
2008-12-28, 02:29:04,VALID,1000.51,VALID,0,VALID,88.9909,VALID,0,VALID,25.3974,VALID,357,VALID,0.651563,
2008-12-28, 02:30:04,VALID,1000.51,VALID,0,VALID,89.1206,VALID,0,VALID,25.3584,VALID,357,VALID,0.596484,
2008-12-28, 02:31:04,VALID,1000.5,VALID,0,VALID,89.2121,VALID,0,VALID,25.3584,VALID,357,VALID,0.469141,
2008-12-28, 02:32:04,VALID,1000.48,VALID,0,VALID,89.2732,VALID,0,VALID,25.3604,VALID,357,VALID,0.453906,
2008-12-28, 02:33:04,VALID,1000.46,VALID,0,VALID,89.3723,VALID,0,VALID,25.3584,VALID,357,VALID,0.0589844,
2008-12-28, 02:34:04,VALID,1000.45,VALID,0,VALID,89.4563,VALID,0,VALID,25.3798,VALID,357,VALID,0.605859,
2008-12-28, 02:35:04,VALID,1000.42,VALID,0,VALID,89.4715,VALID,0,VALID,25.3798,VALID,345,VALID,0.155078,
2008-12-28, 02:36:04,VALID,1000.4,VALID,0,VALID,89.6088,VALID,0,VALID,25.339,VALID,345,VALID,0.258594,
2008-12-28, 02:37:04,VALID,1000.42,VALID,0,VALID,89.7996,VALID,0,VALID,25.3798,VALID,345,VALID,0,
2008-12-28, 02:38:04,VALID,1000.39,VALID,0,VALID,89.8758,VALID,0,VALID,25.3798,VALID,345,VALID,0,
2008-12-28, 02:39:04,VALID,1000.34,VALID,0,VALID,89.853,VALID,0,VALID,25.3993,VALID,270,VALID,0.345313,
2008-12-28, 02:40:04,VALID,1000.33,VALID,0,VALID,89.3266,VALID,0,VALID,25.3779,VALID,333,VALID,1.025,
2008-12-28, 02:41:04,VALID,1000.28,VALID,0,VALID,89.1969,VALID,0,VALID,25.3993,VALID,333,VALID,0.733984,
2008-12-28, 02:42:04,VALID,1000.21,VALID,0,VALID,89.1435,VALID,0,VALID,25.3974,VALID,328,VALID,0.264062,
2008-12-28, 02:43:04,VALID,1000.17,VALID,0,VALID,89.0214,VALID,0,VALID,25.4188,VALID,359,VALID,0.626172,
2008-12-28, 02:44:04,VALID,1000.17,VALID,0,VALID,89.3342,VALID,0,VALID,25.4169,VALID,359,VALID,0.371875,
2008-12-28, 02:45:04,VALID,1000.13,VALID,0,VALID,89.1664,VALID,0,VALID,25.4188,VALID,344,VALID,0.440234,
2008-12-28, 02:46:04,VALID,1000.07,VALID,0,VALID,89.1969,VALID,0,VALID,25.4188,VALID,351,VALID,0.957422,
2008-12-28, 02:47:04,VALID,1000.03,VALID,0,VALID,89.5554,VALID,0,VALID,25.3798,VALID,344,VALID,0.512109,
2008-12-28, 02:48:04,VALID,1000.02,VALID,0,VALID,89.647,VALID,0,VALID,25.3,VALID,350,VALID,0.454688,
2008-12-28, 02:49:04,VALID,1000.02,VALID,0,VALID,89.9369,VALID,0,VALID,25.2611,VALID,354,VALID,0.807813,
2008-12-28, 02:50:04,VALID,1000.05,VALID,0,VALID,90.242,VALID,0,VALID,25.2027,VALID,345,VALID,0.255469,
2008-12-28, 02:51:04,VALID,1000.03,VALID,0,VALID,90.6921,VALID,0,VALID,25.1637,VALID,309,VALID,0.716797,
2008-12-28, 02:52:04,VALID,999.992,VALID,0,VALID,90.8218,VALID,0,VALID,25.1656,VALID,304,VALID,0.361328,
2008-12-28, 02:53:04,VALID,999.997,VALID,0,VALID,91.0202,VALID,0,VALID,25.1267,VALID,290,VALID,0.343359,
2008-12-28, 02:54:04,VALID,999.988,VALID,0,VALID,91.1117,VALID,0,VALID,25.0663,VALID,292,VALID,0.479688,
2008-12-28, 02:55:04,VALID,999.985,VALID,0,VALID,91.2643,VALID,0,VALID,25.0488,VALID,322,VALID,0.292188,
2008-12-28, 02:56:04,VALID,999.986,VALID,0,VALID,91.4703,VALID,0,VALID,24.9885,VALID,23,VALID,0.140625,
2008-12-28, 02:57:04,VALID,999.947,VALID,0,VALID,91.6991,VALID,0,VALID,24.969,VALID,22,VALID,0.0117188,
2008-12-28, 02:58:04,VALID,999.922,VALID,0,VALID,91.7831,VALID,0,VALID,24.9495,VALID,347,VALID,0.542578,
2008-12-28, 02:59:04,VALID,999.896,VALID,0,VALID,91.8517,VALID,0,VALID,24.9514,VALID,5,VALID,0.633203,
2008-12-28, 03:00:04,VALID,999.884,VALID,0,VALID,92.0272,VALID,0,VALID,24.8716,VALID,5,VALID,0.457031,
2008-12-28, 03:01:04,VALID,999.912,VALID,0,VALID,92.073,VALID,0,VALID,24.854,VALID,358,VALID,0.634375,
2008-12-28, 03:02:04,VALID,999.97,VALID,0,VALID,92.2713,VALID,0,VALID,24.8132,VALID,350,VALID,0.477734,
2008-12-28, 03:03:04,VALID,999.961,VALID,0,VALID,92.4163,VALID,0,VALID,24.8151,VALID,351,VALID,0.455469,
2008-12-28, 03:04:04,VALID,999.976,VALID,0,VALID,92.5078,VALID,0,VALID,24.7761,VALID,360,VALID,0.642187,
2008-12-28, 03:05:04,VALID,999.997,VALID,0,VALID,92.6375,VALID,0,VALID,24.7159,VALID,360,VALID,0.617578,
2008-12-28, 03:06:04,VALID,1000,VALID,0,VALID,92.7367,VALID,0,VALID,24.6769,VALID,360,VALID,0.267969,
2008-12-28, 03:07:04,VALID,1000.01,VALID,0,VALID,92.8435,VALID,0,VALID,24.6788,VALID,360,VALID,0.25625,
2008-12-28, 03:08:04,VALID,1000.01,VALID,0,VALID,92.9121,VALID,0,VALID,24.638,VALID,360,VALID,0.192578,
2008-12-28, 03:09:04,VALID,999.999,VALID,0,VALID,92.9961,VALID,0,VALID,24.6398,VALID,360,VALID,0,
2008-12-28, 03:10:04,VALID,1000.02,VALID,0,VALID,93.1029,VALID,0,VALID,24.6185,VALID,360,VALID,0,
2008-12-28, 03:11:04,VALID,1000.01,VALID,0,VALID,93.2249,VALID,0,VALID,24.6185,VALID,303,VALID,0.39375,
2008-12-28, 03:12:04,VALID,999.991,VALID,0,VALID,93.2554,VALID,0,VALID,24.6185,VALID,355,VALID,0.597266,
2008-12-28, 03:13:04,VALID,999.991,VALID,0,VALID,93.2707,VALID,0,VALID,24.599,VALID,351,VALID,0.650781,
2008-12-28, 03:14:04,VALID,999.97,VALID,0,VALID,93.3165,VALID,0,VALID,24.6204,VALID,343,VALID,0.255859,
2008-12-28, 03:15:04,VALID,999.975,VALID,0,VALID,93.3546,VALID,0,VALID,24.6398,VALID,351,VALID,0.378125,
2008-12-28, 03:16:04,VALID,999.965,VALID,0,VALID,93.347,VALID,0,VALID,24.6185,VALID,351,VALID,0.124609,
2008-12-28, 03:17:04,VALID,999.973,VALID,0,VALID,93.3317,VALID,0,VALID,24.6204,VALID,351,VALID,0.124609,
2008-12-28, 03:18:04,VALID,999.971,VALID,0,VALID,93.3317,VALID,0,VALID,24.599,VALID,351,VALID,0.195313,
2008-12-28, 03:19:04,VALID,999.978,VALID,0,VALID,93.3775,VALID,0,VALID,24.6398,VALID,350,VALID,0.754687,
2008-12-28, 03:20:04,VALID,999.994,VALID,0,VALID,93.408,VALID,0,VALID,24.6185,VALID,357,VALID,0.943359,
2008-12-28, 03:21:04,VALID,1000.03,VALID,0,VALID,93.3622,VALID,0,VALID,24.6185,VALID,352,VALID,0.904297,
2008-12-28, 03:22:04,VALID,1000.06,VALID,0,VALID,93.3012,VALID,0,VALID,24.6185,VALID,11,VALID,0.271484,
2008-12-28, 03:23:04,VALID,1000.11,VALID,0,VALID,93.3394,VALID,0,VALID,24.6185,VALID,294,VALID,0.380859,
2008-12-28, 03:24:04,VALID,1000.1,VALID,0,VALID,93.4233,VALID,0,VALID,24.638,VALID,295,VALID,0.568359,
2008-12-28, 03:25:04,VALID,1000.08,VALID,0,VALID,93.4004,VALID,0,VALID,24.6788,VALID,345,VALID,0.794531,
2008-12-28, 03:26:04,VALID,1000.12,VALID,0,VALID,93.3394,VALID,0,VALID,24.6788,VALID,352,VALID,0.784375,
2008-12-28, 03:27:04,VALID,1000.1,VALID,0,VALID,93.3622,VALID,0,VALID,24.6769,VALID,331,VALID,0.239063,
2008-12-28, 03:28:04,VALID,1000.15,VALID,0,VALID,93.3165,VALID,0,VALID,24.6769,VALID,268,VALID,1.03242,
2008-12-28, 03:29:04,VALID,1000.17,VALID,0,VALID,93.3775,VALID,0,VALID,24.6964,VALID,242,VALID,0.413672,
2008-12-28, 03:30:04,VALID,1000.19,VALID,0,VALID,93.2783,VALID,0,VALID,24.6964,VALID,208,VALID,0.815234,
2008-12-28, 03:31:04,VALID,1000.2,VALID,0,VALID,93.2707,VALID,0,VALID,24.7177,VALID,216,VALID,0.423828,
2008-12-28, 03:32:04,VALID,1000.2,VALID,0,VALID,93.2783,VALID,0,VALID,24.6964,VALID,288,VALID,0.378516,
2008-12-28, 03:33:04,VALID,1000.22,VALID,0,VALID,93.2859,VALID,0,VALID,24.7177,VALID,288,VALID,0.296094,
2008-12-28, 03:34:04,VALID,1000.22,VALID,0,VALID,93.2097,VALID,0,VALID,24.7353,VALID,297,VALID,0.554688,
2008-12-28, 03:35:04,VALID,1000.21,VALID,0,VALID,93.1944,VALID,0,VALID,24.7761,VALID,300,VALID,0.262891,
2008-12-28, 03:36:04,VALID,1000.23,VALID,0,VALID,93.1486,VALID,0,VALID,24.7743,VALID,307,VALID,0.453516,
2008-12-28, 03:37:04,VALID,1000.25,VALID,0,VALID,93.1486,VALID,0,VALID,24.8132,VALID,213,VALID,0.559766,
2008-12-28, 03:38:04,VALID,1000.23,VALID,0,VALID,93.0647,VALID,0,VALID,24.8132,VALID,213,VALID,0.0101562,
2008-12-28, 03:39:04,VALID,1000.22,VALID,0,VALID,93.0647,VALID,0,VALID,24.8132,VALID,213,VALID,0.133203,
2008-12-28, 03:40:04,VALID,1000.22,VALID,0,VALID,93.141,VALID,0,VALID,24.7937,VALID,213,VALID,0.236328,
2008-12-28, 03:41:04,VALID,1000.27,VALID,0,VALID,93.2325,VALID,0,VALID,24.8327,VALID,213,VALID,0.225,
2008-12-28, 03:42:04,VALID,1000.24,VALID,0,VALID,93.2097,VALID,0,VALID,24.8308,VALID,213,VALID,0.328125,
2008-12-28, 03:43:04,VALID,1000.26,VALID,0,VALID,93.2707,VALID,0,VALID,24.8522,VALID,213,VALID,0.0789063,
2008-12-28, 03:44:04,VALID,1000.3,VALID,0,VALID,93.3088,VALID,0,VALID,24.854,VALID,213,VALID,0,